Погода в Чернигове

Хотите узнать прогноз погоды в Чернигове? Тогда Вам сюда: Погода в Чернигове

Поиск расширенной информации на нашем сайте:

Полезная информация:

Новости сайта



02.01.2020
Опубликован Долгосрочный прогноз погоды по городам России и ближнего зарубежья на январь 2020 года.
Карты: Прогноз на январь и февраль 2020 года, Сравнение прогнозируемой аномалии приземной температуры воздуха на январь 2020 года по разным моделям.




Погода в Чернигове - сегодня

Время (UTC), дата Ветер
(°,м/с) 
Видим.   Явления Облачность Т
(°С)
Тd
(°С)
f(%) Тe
(°С)
Pmin
(гПа)
dP
(гПа)
Po
(мм)
O2
(г/м3)
Тmin Tmax R s Состояние
почвы
15 27.03.20 060 (СВ) 20000 м    8/0 верхняя 
[Cs]
+16.1 -7.3 19 +17  1025.8  -2.2  759  289           
18 27.03.20 030 (СВ) н/о    4/0 верхняя 
[Cs]
+8.4 -4.3 40 +8  1025.5  -0.7  758  297    +17.4       
21 27.03.20 060 (СВ) н/о    ясно 
+10 -5.7 33 +10  1024.3  -1.1  757  295           
00 28.03.20 070 (В) н/о    ясно 
+6.7 -3.5 48 +7  1023.2  -1.3  756  298           
03 28.03.20 060 (СВ) н/о    8/0 средняя, верхняя 
[Ac trans|Ci fib]
+5.5 -4.5 48 +5  1022  -1.2  755  299           
06 28.03.20 080 (В) 10 км    10/0 верхняя 
[Cs]
+8.4 -4.3 40 +8  1021  -0.8  755  296  +4         
09 28.03.20 060 (СВ) 20000 м    10/0 верхняя 
[Cs]
+15.2 -5.2 24 +15  1018.9  -1.8  753  288           
12 28.03.20 090 (В) 20000 м    8/0 средняя, верхняя 
[As trans|Ci fib]
+17.3 -10.3 14 +18  1016  -2.7  751  286           
15 28.03.20 080 (В) 20000 м    6/0 средняя, верхняя 
[As trans|Ci fib]
+16 -4.2 25 +17  1013.9  -2.1  750  286           
18 28.03.20 060 (СВ) н/о    4/0 средняя 
[Ac trans]
+12.6 -5 29 +13  1013.5  -0.6  749  289    +17.6       
21 28.03.20 060 (СВ) н/о    4/0 средняя 
[Ac trans]
+7.6 -2.4 49 +9  1012.1  -1.6  748  294           
00 29.03.20 070 (В) н/о    3/0 средняя 
[Ac trans]
+8.1 -1.3 51 +9  1010.4  -1.7  747  292           
03 29.03.20 тихо ()   н/о    8/3 1000 м средняя 
[Sc|Ac trans]
+4.5 -1.8 64 +5  1009.2  -1.4  746  296           
06 29.03.20 100 (В) 10 км    6/6 1000 м средняя 
[Sc|Ac und]
+9 -1.7 47 +9  1008.1  -0.8  745  291  +4.2         
09 29.03.20 090 (В) 20000 м    3/0 верхняя 
[Ci fib]
+15 -2.7 29 +16  1006.5  -1.3  744  285           
12 29.03.20 160 (Ю) 20000 м    3/0 верхняя 
[Ci sp]
+18.2 -2.9 24 +19  1004.4  -1.9  743  281           
15 29.03.20 080 (В) 20000 м    4/0 верхняя 
[Ci sp]
+18 -2.8 24 +19  1003.3  -1.1  742  281           
18 29.03.20 тихо ()   н/о    3/0 верхняя 
[Ci fib]
+10.3 -0 49 +10  1004.1  0.4  742  288    +19.5       
21 29.03.20 030 (СВ) н/о    4/0 верхняя 
[Ci fib]
+6.1 +3.2 82 +7  1003.8  -0.5  742  292           
00 30.03.20 070 (В) н/о    ясно 
+2.7 -1.5 74 +3  1003.6  -0.4  742  296           
03 30.03.20 350 (С) н/о    10/0 средняя 
[Ac und]
+6.5 -0.2 62 +5  1004.2  0.8  742  292           
06 30.03.20 350 (С) 10 км    10/0 средняя 
[Ac und]
+5.1 +1 75 +3  1006.4  2.1  744  294  +2.7         
09 30.03.20 340 (С) 10 км    10/3 1000 м верхняя 
[Cu hum|Cs]
+7.4 +0.9 63 +5  1008.1  1.8  745  292           
12 30.03.20 330 (СЗ) 10 км    10/6 660 м верхняя 
[Sc|Cs]
+5.5 -0.6 65 +3  1009.2  746  295           
15 30.03.20 340 (С) 10 км  в посл. час ливневой снег  10/8 500 м средняя 
[Sc|Ac und]
+2.1 -2.5 72 -2  1011.3  1.9  747  299           
Время (UTC), дата Ветер
(°,м/с) 
Видим.   Явления Облачность Т
(°С)
Тd
(°С)
f(%) Тe
(°С)
Pmin
(гПа)
dP
(гПа)
Po
(мм)
O2
(г/м3)
Тmin Tmax R s Состояние
почвы

Для получения пояснительной информации подведите курсор к названию столбца.

ПОГОДА в Чернигове - архив

Всё, что Вы хотите узнать о погоде в Чернигове - удобно и подробно!

Выберите нужную дату (начиная с 1 января 2019* года) и нажмите кнопку "Найти".
Будут отображены архивные сводки погоды по пункту Чернигов, начиная с указанной даты.


Отображать данные в формате CSV (для использования в таблицах Excel)


Внимание! Наш архив погоды предназначен исключительно для личного некоммерческого использования в познавательных целях. Если Вам необходимы официальные справки о состоянии погоды (для производственных, юридических, коммерческих и т.п. целей), обращайтесь в органы Росгидромета.

*Примечание: данная дата относится к архиву по метеостанциям СССР (Россия, СНГ, Балтия).
Архив по метеостанциям Зарубежной Европы и Азии (кроме Китая) хранится 10 дней, по другим регионам земного шара (Китай, Африка, Америка, Австралия, Океания) - 1 день.

Чернигов - район местоположения метеостанции


Название, широта, долгота, высота метеостанции:
Чернигов 51.5°ш. 31.2°д. 141 м над ур. моря [Украина]

Дополнительная информация

В oтличие oт бoльшинства пoгoдных сайтoв мы публикуем пoдрoбную метеoинфoрмацию в детальнoм прoфессиoнальнoм фoрмате.

Характеристики температуры и влажнoсти вoздуха измеряются на высoте 2 м в тени вдали oт зданий и деревьев.
Скoрoсть ветра измеряется на высoте 10 м (на урoвне рoста челoвека скoрoсть ветра ниже в 1.5-2 раза). Если метеoстанция нахoдится в гoрoде или в лесу, тo скoрoсть ветра занижена на 2-4 м/с пo сравнению с oткрытым местoм. Скoрoсть ветра над акватoриями крупных рек и oзёр, а также на вершинах хoлмoв на 2-5 м/с выше, чем в oбычных услoвиях.
Атмoсфернoе давление в разных тoчках местнoсти мoжет значительнo oтличаться oт давления на метеoстанции, в зависимoсти oт услoвий рельефа (при пoдъёме на 10 м давление пoнижается примернo на 1 мм рт.ст.).